Flag for Canada Weather past 2 weeks in Halifax, Nova Scotia, Canada

Now
16 °F

Partly sunny.


Feels Like: -5 °F
Forecast: 7 / 22 °F
Wind: 31 mph from Northwest

Location: Halifax International Airport

Current Time: Feb 1, 2015 at 2:40:47 PM

Latest Report: Feb 1, 2015 at 2:00 PM


Visibility: 15 mi

Pressure: 29.61 "Hg

Humidity: 67%

Dew point: 7 °F

Location of HalifaxLocation

Historic Weather in Halifax — Graph

°F

Halifax temperature yesterday

Maximum temperature yesterday: 34 °F (at 9:00 AM)
Minimum temperature yesterday: 23 °F (at 12:00 AM)
Average temperature yesterday: 30 °F

Past Weeks' High & Low Weather Summary

 TemperatureHumidityPressure
High50 °F (Jan 24, 11:00 PM)100% (Jan 18, 7:00 PM)30.41 "Hg (Jan 18, 7:00 PM)
Low1 °F (Jan 18, 2:00 AM)41% (Jan 26, 4:00 PM)28.55 "Hg (Jan 25, 3:00 AM)
Average24 °F82%29.79 "Hg
* Reported Jan 17 1:00 PM — Feb 1 1:00 PM, Halifax, Weather by CustomWeather, © 2014

Note: Actual official high and low records may vary slightly from our data, if they occured in-between our weather recording intervals... More about our weather records

Advertising

Halifax weather history for previous 24 hours

 ConditionsComfort  
Time TempWeatherWind HumidityBarometerVisibility
1:00 PM
Feb 1
16 °FScattered clouds.28 mph67%29.59 "Hg15 mi
12:00 PM14 °FScattered clouds.29 mph73%29.58 "Hg15 mi
11:00 AM14 °FScattered clouds.26 mph73%29.58 "Hg10 mi
10:51 AM14 °FLight snow. Partly sunny.29 mph79%29.58 "Hg6 mi
10:00 AM14 °FLight snow. Overcast.20 mph85%29.56 "Hg1 mi
9:00 AM14 °FLight snow. Partly sunny.22 mph79%29.54 "Hg3 mi
8:00 AM14 °FLight snow. Overcast.21 mph85%29.52 "Hg1 mi
7:50 AM16 °FLight snow. Overcast.20 mph86%29.51 "Hg1 mi
7:00 AM16 °FSnow flurries. Overcast.24 mph93%29.47 "Hg3 mi
6:00 AM18 °FSnow flurries. Overcast.20 mph86%29.43 "Hg3 mi
5:00 AM18 °FSnow flurries. Overcast.26 mph93%29.40 "Hg3 mi
4:00 AM19 °FSnow flurries. Overcast.26 mph86%29.39 "Hg3 mi
3:00 AM21 °FSnow flurries. Overcast.23 mph93%29.38 "Hg2 mi
2:00 AM21 °FPassing clouds.23 mph93%29.36 "Hg2 mi
1:00 AM23 °FSnow flurries. Overcast.21 mph93%29.34 "Hg3 mi
12:00 AM23 °FSnow flurries. Overcast.20 mph93%29.32 "Hg2 mi
11:00 PM
Jan 31
23 °FSnow flurries. Low clouds.21 mph93%29.29 "Hg2 mi
10:00 PM27 °FSnow flurries. Ice fog.20 mph93%29.27 "Hg1 mi
9:00 PM28 °FSnow flurries. Low clouds.16 mph93%29.27 "Hg1 mi
8:00 PM28 °FSnow flurries. Mostly cloudy.13 mph100%29.26 "Hg15 mi
7:00 PM30 °FSnow flurries. Ice fog.13 mph93%29.25 "Hg1 mi
6:00 PM30 °FSnow flurries. Ice fog.12 mph100%29.24 "Hg1 mi
5:00 PM30 °FIce fog.10 mph100%29.22 "Hg1 mi
4:00 PM32 °FIce fog.12 mph93%29.21 "Hg1 mi
3:55 PM32 °FIce fog.9 mph100%29.20 "Hg1 mi
3:00 PM32 °FIce fog.9 mph100%29.20 "Hg1 mi
2:00 PM32 °FIce fog.14 mph100%29.15 "Hg1 mi
Weather by CustomWeather, © 2014

See weather overviewHow to use our weather pages